| time (UTC) | temp F | wind direction | speed knots | gust knots | rain 1hr in | rain 24hr in | rain mn in | humidity % | barometer mb |
| 20260831015643 | 147 | 161 | 2.6 | 8.7 | 0.00 | 0.00 | 0.00 | 100 | 1013.3 |
| 20260831015142 | 146 | 90 | 0.0 | 0.0 | 0.00 | 0.00 | 0.00 | 100 | 1013.1 |
| 20260831014626 | 147 | 90 | 0.0 | 0.0 | 0.00 | 0.00 | 0.00 | 100 | 1013.0 |
| 20260831014113 | 147 | 90 | 0.0 | 1.7 | 0.00 | 0.00 | 0.00 | 100 | 1012.9 |
| 20260831013616 | 147 | 130 | 0.0 | 0.0 | 0.00 | 0.00 | 0.00 | 100 | 1012.6 |
| 20260831013612 | 147 | 90 | 0.0 | 1.7 | 0.00 | 0.00 | 0.00 | 100 | 1012.9 |
| 20260831012830 | 147 | 130 | 0.0 | 4.3 | 0.00 | 0.00 | 0.00 | 100 | 1012.6 |
| 20260831012037 | 147 | 130 | 0.9 | 4.3 | 0.00 | 0.00 | 0.00 | 100 | 1012.6 |
| 20260831011528 | 147 | 129 | 0.0 | 3.5 | 0.00 | 0.00 | 0.00 | 100 | 1012.5 |
| 20260831011028 | 147 | 136 | 0.0 | 3.5 | 0.00 | 0.00 | 0.00 | 100 | 1012.5 |
| 20260831010500 | 147 | 149 | 0.0 | 6.1 | 0.00 | 0.00 | 0.00 | 100 | 1012.6 |
| 20260831010224 | 147 | 149 | 0.0 | 6.1 | 0.00 | 0.00 | 0.00 | 100 | 1012.5 |
| 20260831005427 | 147 | 174 | 0.0 | 4.3 | 0.00 | 0.00 | 0.00 | 100 | 1012.6 |
| 20260831004911 | 147 | 202 | 1.7 | 4.3 | 0.00 | 0.00 | 0.00 | 100 | 1012.6 |
| 20260831004412 | 147 | 147 | 0.0 | 6.1 | 0.00 | 0.00 | 0.00 | 100 | 1012.6 |
| 20260831003852 | 147 | 147 | 2.6 | 6.1 | 0.00 | 0.00 | 0.00 | 100 | 1012.5 |
| 20260831003351 | 147 | 129 | 2.6 | 5.2 | 0.00 | 0.00 | 0.00 | 100 | 1012.4 |
| 20260831002847 | 147 | 156 | 2.6 | 7.8 | 0.00 | 0.00 | 0.00 | 100 | 1012.4 |
| 20260831002330 | 147 | 104 | 3.5 | 7.8 | 0.00 | 0.00 | 0.00 | 100 | 1012.4 |
| 20260831001831 | 147 | 153 | 0.0 | 6.1 | 0.00 | 0.00 | 0.00 | 100 | 1012.3 |
| 20260831001309 | 148 | 153 | 0.0 | 6.1 | 0.00 | 0.00 | 0.00 | 100 | 1012.3 |
| 20260831000744 | 148 | 139 | 0.0 | 6.1 | 0.00 | 0.00 | 0.00 | 100 | 1012.3 |
| 20260831000242 | 148 | 136 | 0.9 | 7.0 | 0.00 | 0.00 | 0.00 | 100 | 1012.2 |
| 20260830235743 | 148 | 127 | 0.9 | 7.0 | 0.00 | 0.00 | 0.00 | 100 | 1012.3 |
| 20260830235234 | 148 | 112 | 3.5 | 5.2 | 0.00 | 0.00 | 0.00 | 100 | 1012.3 |
| 20260830234736 | 148 | 116 | 0.0 | 5.2 | 0.00 | 0.00 | 0.00 | 100 | 1012.3 |
| 20260830234233 | 148 | 153 | 0.0 | 7.8 | 0.00 | 0.00 | 0.00 | 100 | 1012.4 |
| 20260830234229 | 148 | 116 | 3.5 | 7.0 | 0.00 | 0.00 | 0.00 | 100 | 1012.3 |
| 20260830233446 | 148 | 146 | 2.6 | 7.0 | 0.00 | 0.00 | 0.00 | 100 | 1012.3 |
| 20260830232945 | 148 | 151 | 0.0 | 3.5 | 0.00 | 0.00 | 0.00 | 100 | 1012.2 |
| 20260830232212 | 149 | 230 | 0.9 | 8.7 | 0.00 | 0.00 | 0.00 | 100 | 1012.3 |
| 20260830231711 | 148 | 144 | 2.6 | 8.7 | 0.00 | 0.00 | 0.00 | 100 | 1012.4 |
| 20260830231210 | 149 | 180 | 0.0 | 7.0 | 0.00 | 0.00 | 0.00 | 100 | 1012.3 |
| 20260830230710 | 149 | 210 | 0.9 | 7.0 | 0.00 | 0.00 | 0.00 | 100 | 1012.3 |
| 20260830230207 | 149 | 125 | 2.6 | 7.8 | 0.00 | 0.00 | 0.00 | 100 | 1012.3 |
| 20260830225937 | 148 | 147 | 0.0 | 7.8 | 0.00 | 0.00 | 0.00 | 100 | 1012.3 |
| 20260830225158 | 148 | 143 | 5.2 | 7.8 | 0.00 | 0.00 | 0.00 | 100 | 1012.4 |
| 20260830224659 | 149 | 201 | 0.9 | 7.8 | 0.00 | 0.00 | 0.00 | 100 | 1012.5 |
| 20260830224143 | 149 | 192 | 4.3 | 6.1 | 0.00 | 0.00 | 0.00 | 100 | 1012.5 |
| 20260830223646 | 149 | 143 | 2.6 | 7.0 | 0.00 | 0.00 | 0.00 | 100 | 1012.5 |
| 20260830223642 | 149 | 147 | 1.7 | 7.0 | 0.00 | 0.00 | 0.00 | 100 | 1012.5 |
| 20260830222622 | 149 | 160 | 1.7 | 7.0 | 0.00 | 0.00 | 0.00 | 100 | 1012.5 |
| 20260830222113 | 149 | 130 | 1.7 | 9.6 | 0.00 | 0.00 | 0.00 | 100 | 1012.5 |
| 20260830221559 | 149 | 150 | 5.2 | 9.6 | 0.00 | 0.00 | 0.00 | 100 | 1012.6 |
| 20260830221059 | 149 | 129 | 0.0 | 7.8 | 0.00 | 0.00 | 0.00 | 100 | 1012.5 |
| 20260830220826 | 149 | 181 | 1.7 | 7.8 | 0.00 | 0.00 | 0.00 | 100 | 1012.8 |
| 20260830220056 | 149 | 122 | 1.7 | 7.0 | 0.00 | 0.00 | 0.00 | 100 | 1012.8 |
| 20260830215556 | 149 | 185 | 1.7 | 7.0 | 0.00 | 0.00 | 0.00 | 100 | 1012.8 |
| 20260830215058 | 148 | 153 | 0.0 | 8.7 | 0.00 | 0.00 | 0.00 | 100 | 1012.8 |
| 20260830214557 | 149 | 151 | 3.5 | 8.7 | 0.00 | 0.00 | 0.00 | 100 | 1012.9 |
| 20260830214055 | 149 | 194 | 0.9 | 7.8 | 0.00 | 0.00 | 0.00 | 100 | 1013.0 |
| 20260830213557 | 149 | 147 | 0.0 | 7.8 | 0.00 | 0.00 | 0.00 | 100 | 1013.0 |
| 20260830213056 | 149 | 213 | 5.2 | 7.0 | 0.00 | 0.00 | 0.00 | 100 | 1013.1 |
| 20260830212556 | 149 | 226 | 3.5 | 7.0 | 0.00 | 0.00 | 0.00 | 100 | 1013.2 |
| 20260830212057 | 148 | 120 | 0.9 | 7.0 | 0.00 | 0.00 | 0.00 | 100 | 1013.3 |
| 20260830211557 | 149 | 139 | 2.6 | 7.8 | 0.00 | 0.00 | 0.00 | 100 | 1013.4 |
| 20260830211056 | 149 | 146 | 4.3 | 7.8 | 0.00 | 0.00 | 0.00 | 100 | 1013.5 |
| 20260830210556 | 149 | 163 | 3.5 | 7.8 | 0.00 | 0.00 | 0.00 | 100 | 1013.6 |
| 20260830210326 | 148 | 125 | 3.5 | 7.8 | 0.00 | 0.00 | 0.00 | 100 | 1013.8 |
| 20260830205556 | 148 | 151 | 4.3 | 7.8 | 0.00 | 0.00 | 0.00 | 100 | 1013.8 |
| 20260830205056 | 148 | 154 | 2.6 | 8.7 | 0.00 | 0.00 | 0.00 | 100 | 1013.9 |
| 20260830204557 | 149 | 151 | 2.6 | 8.7 | 0.00 | 0.00 | 0.00 | 100 | 1013.9 |
| 20260830204057 | 148 | 216 | 3.5 | 8.7 | 0.00 | 0.00 | 0.00 | 100 | 1014.0 |
| 20260830203557 | 149 | 150 | 0.0 | 6.1 | 0.00 | 0.00 | 0.00 | 100 | 1014.1 |
| 20260830203057 | 149 | 142 | 3.5 | 6.1 | 0.00 | 0.00 | 0.00 | 100 | 1014.1 |
| 20260830202556 | 149 | 160 | 5.2 | 9.6 | 0.00 | 0.00 | 0.00 | 100 | 1014.2 |
| 20260830202056 | 149 | 194 | 2.6 | 9.6 | 0.00 | 0.00 | 0.00 | 100 | 1014.2 |
| 20260830201556 | 148 | 156 | 4.3 | 7.0 | 0.00 | 0.00 | 0.00 | 100 | 1014.3 |
| 20260830201056 | 148 | 174 | 3.5 | 10.4 | 0.00 | 0.00 | 0.00 | 100 | 1014.4 |
| 20260830200556 | 148 | 139 | 5.2 | 10.4 | 0.00 | 0.00 | 0.00 | 100 | 1014.5 |
| 20260830200056 | 149 | 177 | 0.9 | 7.0 | 0.00 | 0.00 | 0.00 | 100 | 1014.5 |
| 20260830195555 | 148 | 154 | 3.5 | 8.7 | 0.00 | 0.00 | 0.00 | 100 | 1014.6 |
| 20260830195056 | 148 | 105 | 0.0 | 8.7 | 0.00 | 0.00 | 0.00 | 100 | 1014.6 |
| 20260830194827 | 148 | 112 | 3.5 | 8.7 | 0.00 | 0.00 | 0.00 | 100 | 1014.8 |
| 20260830194055 | 148 | 133 | 4.3 | 7.8 | 0.00 | 0.00 | 0.00 | 100 | 1014.8 |
| 20260830193826 | 148 | 112 | 4.3 | 7.0 | 0.00 | 0.00 | 0.00 | 100 | 1015.0 |
| 20260830193057 | 148 | 146 | 0.0 | 7.8 | 0.00 | 0.00 | 0.00 | 100 | 1015.0 |
| 20260830192557 | 148 | 142 | 5.2 | 9.6 | 0.00 | 0.00 | 0.00 | 100 | 1015.1 |
| 20260830192057 | 148 | 88 | 6.1 | 9.6 | 0.00 | 0.00 | 0.00 | 100 | 1015.2 |
| 20260830191556 | 148 | 137 | 0.0 | 9.6 | 0.00 | 0.00 | 0.00 | 100 | 1015.3 |
| 20260830191055 | 148 | 157 | 6.1 | 10.4 | 0.00 | 0.00 | 0.00 | 100 | 1015.3 |
| 20260830190556 | 148 | 189 | 1.7 | 10.4 | 0.00 | 0.00 | 0.00 | 100 | 1015.4 |
| 20260830190056 | 148 | 180 | 4.3 | 9.6 | 0.00 | 0.00 | 0.00 | 100 | 1015.6 |
| 20260830185827 | 148 | 265 | 4.3 | 8.7 | 0.00 | 0.00 | 0.00 | 100 | 1015.7 |
| 20260830185327 | 148 | 153 | 3.5 | 7.0 | 0.00 | 0.00 | 0.00 | 100 | 1015.8 |
| 20260830184826 | 148 | 127 | 3.5 | 7.0 | 0.00 | 0.00 | 0.00 | 100 | 1015.7 |
| 20260830184056 | 148 | 189 | 3.5 | 7.8 | 0.00 | 0.00 | 0.00 | 100 | 1015.8 |
| 20260830183555 | 148 | 158 | 0.0 | 7.8 | 0.00 | 0.00 | 0.00 | 100 | 1015.9 |
| 20260830183056 | 147 | 146 | 3.5 | 8.7 | 0.00 | 0.00 | 0.00 | 100 | 1016.0 |
| 20260830182828 | 148 | 120 | 0.0 | 9.6 | 0.00 | 0.00 | 0.00 | 100 | 1016.1 |
| 20260830182056 | 147 | 123 | 0.9 | 9.6 | 0.00 | 0.00 | 0.00 | 100 | 1016.2 |
| 20260830181553 | 147 | 132 | 0.0 | 8.7 | 0.00 | 0.00 | 0.00 | 100 | 1016.2 |
| 20260830181045 | 147 | 189 | 5.2 | 8.7 | 0.00 | 0.00 | 0.00 | 100 | 1016.4 |
| 20260830180814 | 147 | 135 | 3.5 | 6.1 | 0.00 | 0.00 | 0.00 | 100 | 1016.5 |
| 20260830180043 | 147 | 104 | 4.3 | 6.1 | 0.00 | 0.00 | 0.00 | 100 | 1016.6 |
| 20260830175805 | 147 | 150 | 4.3 | 7.0 | 0.00 | 0.00 | 0.00 | 100 | 1016.8 |
| 20260830175036 | 147 | 161 | 3.5 | 7.0 | 0.00 | 0.00 | 0.00 | 100 | 1016.9 |
| 20260830174527 | 147 | 122 | 4.3 | 8.7 | 0.00 | 0.00 | 0.00 | 100 | 1017.0 |
| 20260830174018 | 147 | 157 | 4.3 | 8.7 | 0.00 | 0.00 | 0.00 | 100 | 1017.1 |
| 20260830173518 | 148 | 171 | 2.6 | 8.7 | 0.00 | 0.00 | 0.00 | 100 | 1017.1 |
| 20260830173017 | 147 | 115 | 0.9 | 8.7 | 0.00 | 0.00 | 0.00 | 100 | 1017.2 |
| 20260830172503 | 148 | 187 | 6.1 | 8.7 | 0.00 | 0.00 | 0.00 | 100 | 1017.3 |
| 20260830172002 | 148 | 153 | 4.3 | 7.0 | 0.00 | 0.00 | 0.00 | 100 | 1017.3 |
| 20260830171503 | 147 | 78 | 0.0 | 8.7 | 0.00 | 0.00 | 0.00 | 100 | 1017.5 |
| 20260830170957 | 148 | 156 | 3.5 | 8.7 | 0.00 | 0.00 | 0.00 | 100 | 1017.5 |
| 20260830170457 | 148 | 151 | 4.3 | 7.0 | 0.00 | 0.00 | 0.00 | 100 | 1017.5 |
| 20260830165957 | 148 | 150 | 2.6 | 6.1 | 0.00 | 0.00 | 0.00 | 100 | 1017.5 |
| 20260830165457 | 147 | 208 | 2.6 | 8.7 | 0.00 | 0.00 | 0.00 | 100 | 1017.5 |
| 20260830164957 | 147 | 172 | 1.7 | 8.7 | 0.00 | 0.00 | 0.00 | 100 | 1017.6 |
| 20260830164457 | 148 | 195 | 3.5 | 7.0 | 0.00 | 0.00 | 0.00 | 100 | 1017.6 |
| 20260830163956 | 148 | 95 | 0.0 | 6.1 | 0.00 | 0.00 | 0.00 | 100 | 1017.7 |
| 20260830163457 | 147 | 150 | 3.5 | 7.0 | 0.00 | 0.00 | 0.00 | 100 | 1017.7 |
| 20260830162956 | 147 | 135 | 3.5 | 7.0 | 0.00 | 0.00 | 0.00 | 100 | 1017.8 |
| 20260830162456 | 147 | 206 | 2.6 | 7.0 | 0.00 | 0.00 | 0.00 | 100 | 1017.7 |
| 20260830161957 | 147 | 151 | 2.6 | 7.0 | 0.00 | 0.00 | 0.00 | 100 | 1017.7 |
| 20260830161726 | 147 | 216 | 0.9 | 6.1 | 0.00 | 0.00 | 0.00 | 100 | 1017.7 |
| 20260830160955 | 147 | 195 | 0.9 | 7.8 | 0.00 | 0.00 | 0.00 | 100 | 1017.7 |
| 20260830160455 | 147 | 227 | 1.7 | 7.8 | 0.00 | 0.00 | 0.00 | 100 | 1017.7 |
| 20260830155953 | 147 | 142 | 2.6 | 6.1 | 0.00 | 0.00 | 0.00 | 100 | 1017.7 |
| 20260830155724 | 147 | 177 | 2.6 | 6.1 | 0.00 | 0.00 | 0.00 | 100 | 1017.7 |
| 20260830154953 | 147 | 220 | 2.6 | 7.0 | 0.00 | 0.00 | 0.00 | 100 | 1017.6 |
| 20260830154443 | 147 | 109 | 0.9 | 7.0 | 0.00 | 0.00 | 0.00 | 100 | 1017.6 |
| 20260830153928 | 147 | 244 | 0.0 | 7.0 | 0.00 | 0.00 | 0.00 | 100 | 1017.6 |
| 20260830153429 | 147 | 222 | 2.6 | 7.8 | 0.00 | 0.00 | 0.00 | 100 | 1017.6 |
| 20260830152928 | 147 | 203 | 2.6 | 7.8 | 0.00 | 0.00 | 0.00 | 100 | 1017.6 |
| 20260830152700 | 147 | 194 | 4.3 | 7.0 | 0.00 | 0.00 | 0.00 | 100 | 1017.5 |
| 20260830151927 | 146 | 201 | 1.7 | 8.7 | 0.00 | 0.00 | 0.00 | 100 | 1017.5 |
| 20260830151427 | 146 | 191 | 1.7 | 8.7 | 0.00 | 0.00 | 0.00 | 100 | 1017.5 |
| 20260830150926 | 146 | 212 | 3.5 | 8.7 | 0.00 | 0.00 | 0.00 | 100 | 1017.6 |
| 20260830150426 | 146 | 185 | 3.5 | 8.7 | 0.00 | 0.00 | 0.00 | 100 | 1017.6 |
| 20260830150158 | 146 | 160 | 1.7 | 8.7 | 0.00 | 0.00 | 0.00 | 100 | 1017.6 |
| 20260830145427 | 145 | 205 | 5.2 | 8.7 | 0.00 | 0.00 | 0.00 | 100 | 1017.6 |
| 20260830144927 | 145 | 127 | 3.5 | 8.7 | 0.00 | 0.00 | 0.00 | 100 | 1017.5 |
| 20260830144423 | 145 | 192 | 4.3 | 9.6 | 0.00 | 0.00 | 0.00 | 100 | 1017.5 |
| 20260830144155 | 145 | 101 | 2.6 | 9.6 | 0.00 | 0.00 | 0.00 | 100 | 1017.5 |
| 20260830143420 | 145 | 127 | 3.5 | 7.8 | 0.00 | 0.00 | 0.00 | 100 | 1017.6 |
| 20260830142919 | 145 | 170 | 0.9 | 9.6 | 0.00 | 0.00 | 0.00 | 100 | 1017.6 |
| 20260830142419 | 145 | 39 | 0.9 | 9.6 | 0.00 | 0.00 | 0.00 | 100 | 1017.6 |
| 20260830141918 | 145 | 189 | 6.1 | 8.7 | 0.00 | 0.00 | 0.00 | 100 | 1017.5 |
| 20260830141419 | 145 | 213 | 3.5 | 9.6 | 0.00 | 0.00 | 0.00 | 100 | 1017.5 |
| 20260830141150 | 145 | 195 | 5.2 | 9.6 | 0.00 | 0.00 | 0.00 | 100 | 1017.5 |
| 20260830140418 | 144 | 206 | 4.3 | 9.6 | 0.00 | 0.00 | 0.00 | 100 | 1017.3 |
| 20260830140148 | 145 | 210 | 2.6 | 7.8 | 0.00 | 0.00 | 0.00 | 100 | 1017.2 |
| 20260830135418 | 144 | 157 | 4.3 | 9.6 | 0.00 | 0.00 | 0.00 | 100 | 1017.2 |
| 20260830134914 | 144 | 144 | 6.1 | 9.6 | 0.00 | 0.00 | 0.00 | 100 | 1017.3 |
| 20260830134414 | 144 | 174 | 3.5 | 7.0 | 0.00 | 0.00 | 0.00 | 100 | 1017.2 |
| 20260830133914 | 144 | 191 | 1.7 | 6.1 | 0.00 | 0.00 | 0.00 | 100 | 1017.1 |
| 20260830133414 | 144 | 125 | 0.0 | 6.1 | 0.00 | 0.00 | 0.00 | 100 | 1017.1 |
| 20260830132910 | 144 | 172 | 0.0 | 3.5 | 0.00 | 0.00 | 0.00 | 100 | 1017.0 |
| 20260830132411 | 144 | 188 | 0.0 | 0.0 | 0.00 | 0.00 | 0.00 | 100 | 1016.9 |
| 20260830131855 | 144 | 188 | 0.0 | 0.0 | 0.00 | 0.00 | 0.00 | 100 | 1016.9 |
| 20260830131348 | 143 | 188 | 0.0 | 0.0 | 0.00 | 0.00 | 0.00 | 1 | 1017.0 |
| 20260830131121 | 143 | 188 | 0.0 | 0.0 | 0.00 | 0.00 | 0.00 | 1 | 1016.9 |
| 20260830130332 | 143 | 188 | 0.0 | 0.0 | 0.00 | 0.00 | 0.00 | 3 | 1016.9 |
| 20260830125829 | 143 | 188 | 0.0 | 0.0 | 0.00 | 0.00 | 0.00 | 4 | 1016.9 |
| 20260830125324 | 143 | 188 | 0.0 | 0.0 | 0.00 | 0.00 | 0.00 | 5 | 1016.8 |
| 20260830124814 | 143 | 188 | 0.0 | 0.0 | 0.00 | 0.00 | 0.00 | 6 | 1016.8 |
| 20260830124309 | 143 | 188 | 0.0 | 0.0 | 0.00 | 0.00 | 0.00 | 7 | 1016.8 |
| 20260830123810 | 143 | 188 | 0.0 | 0.0 | 0.00 | 0.00 | 0.00 | 11 | 1016.8 |
| 20260830123248 | 143 | 188 | 0.0 | 0.0 | 0.00 | 0.00 | 0.00 | 11 | 1016.7 |
| 20260830122747 | 143 | 188 | 0.0 | 0.0 | 0.00 | 0.00 | 0.00 | 8 | 1016.6 |
| 20260830122457 | 143 | 188 | 0.0 | 0.0 | 0.00 | 0.00 | 0.00 | 8 | 1016.6 |
| 20260830121702 | 143 | 188 | 0.0 | 0.0 | 0.00 | 0.00 | 0.00 | 6 | 1016.6 |
| 20260830121147 | 143 | 188 | 0.0 | 0.0 | 0.00 | 0.00 | 0.00 | 6 | 1016.5 |
| 20260830120644 | 143 | 188 | 0.0 | 0.0 | 0.00 | 0.00 | 0.00 | 6 | 1016.4 |
| 20260830120128 | 143 | 188 | 0.0 | 0.0 | 0.00 | 0.00 | 0.00 | 5 | 1016.4 |
| 20260830115622 | 143 | 188 | 0.0 | 0.0 | 0.00 | 0.00 | 0.00 | 4 | 1016.4 |
| 20260830115102 | 143 | 188 | 0.0 | 0.0 | 0.00 | 0.00 | 0.00 | 4 | 1016.4 |
| 20260830114540 | 143 | 188 | 0.0 | 0.0 | 0.00 | 0.00 | 0.00 | 3 | 1016.4 |
| 20260830114033 | 143 | 188 | 0.0 | 0.0 | 0.00 | 0.00 | 0.00 | 3 | 1016.4 |
| 20260830113525 | 143 | 188 | 0.0 | 0.0 | 0.00 | 0.00 | 0.00 | 2 | 1016.4 |
| 20260830113255 | 143 | 188 | 0.0 | 0.0 | 0.00 | 0.00 | 0.00 | 1 | 1016.4 |
| 20260830112621 | 143 | 188 | 0.0 | 0.0 | 0.00 | 0.00 | 0.00 | 1 | 1016.3 |
| 20260830111444 | 143 | 188 | 0.0 | 0.0 | 0.00 | 0.00 | 0.00 | 100 | 1016.2 |
| 20260830110928 | 143 | 188 | 0.0 | 0.0 | 0.00 | 0.00 | 0.00 | 100 | 1016.1 |
| 20260830110655 | 143 | 188 | 0.0 | 0.0 | 0.00 | 0.00 | 0.00 | 100 | 1016.1 |
| 20260830105925 | 143 | 188 | 0.0 | 0.0 | 0.00 | 0.00 | 0.00 | 100 | 1016.2 |
| 20260830105412 | 143 | 188 | 0.0 | 0.0 | 0.00 | 0.00 | 0.00 | 100 | 1016.1 |
| 20260830105127 | 143 | 188 | 0.0 | 0.0 | 0.00 | 0.00 | 0.00 | 100 | 1016.1 |
| 20260830104333 | 143 | 188 | 0.0 | 0.0 | 0.00 | 0.00 | 0.00 | 100 | 1016.0 |
| 20260830103812 | 143 | 188 | 0.0 | 0.0 | 0.00 | 0.00 | 0.00 | 100 | 1016.0 |
| 20260830103304 | 143 | 188 | 0.0 | 0.0 | 0.00 | 0.00 | 0.00 | 100 | 1016.0 |
| 20260830102803 | 143 | 188 | 0.0 | 0.0 | 0.00 | 0.00 | 0.00 | 100 | 1015.9 |
| 20260830102250 | 143 | 188 | 0.0 | 0.0 | 0.00 | 0.00 | 0.00 | 100 | 1016.0 |
| 20260830101730 | 143 | 188 | 0.0 | 4.3 | 0.00 | 0.00 | 0.00 | 100 | 1015.9 |
| 20260830101224 | 143 | 188 | 0.0 | 4.3 | 0.00 | 0.00 | 0.00 | 100 | 1016.0 |
| 20260830100716 | 143 | 175 | 0.0 | 0.0 | 0.00 | 0.00 | 0.00 | 100 | 1016.0 |
| 20260830100210 | 143 | 175 | 0.0 | 0.0 | 0.00 | 0.00 | 0.00 | 100 | 1015.9 |
| 20260830095942 | 143 | 175 | 0.0 | 0.0 | 0.00 | 0.00 | 0.00 | 100 | 1015.9 |
| 20260830095206 | 144 | 175 | 0.0 | 0.0 | 0.00 | 0.00 | 0.00 | 100 | 1015.9 |
| 20260830094703 | 144 | 175 | 0.0 | 0.0 | 0.00 | 0.00 | 0.00 | 100 | 1015.9 |
| 20260830094156 | 144 | 175 | 0.0 | 0.0 | 0.00 | 0.00 | 0.00 | 100 | 1015.9 |
| 20260830093651 | 144 | 175 | 0.0 | 0.0 | 0.00 | 0.00 | 0.00 | 100 | 1016.0 |
| 20260830093123 | 144 | 175 | 0.0 | 4.3 | 0.00 | 0.00 | 0.00 | 100 | 1016.0 |
| 20260830092601 | 144 | 175 | 0.0 | 4.3 | 0.00 | 0.00 | 0.00 | 100 | 1016.0 |
| 20260830092027 | 144 | 174 | 0.0 | 0.9 | 0.00 | 0.00 | 0.00 | 100 | 1016.1 |
| 20260830091514 | 144 | 174 | 0.0 | 2.6 | 0.00 | 0.00 | 0.00 | 100 | 1016.0 |
| 20260830090955 | 144 | 174 | 0.0 | 2.6 | 0.00 | 0.00 | 0.00 | 100 | 1016.0 |
| 20260830090430 | 144 | 172 | 0.0 | 0.0 | 0.00 | 0.00 | 0.00 | 100 | 1016.1 |
| 20260830085917 | 144 | 172 | 0.0 | 3.5 | 0.00 | 0.00 | 0.00 | 100 | 1016.0 |
| 20260830085646 | 144 | 172 | 0.0 | 3.5 | 0.00 | 0.00 | 0.00 | 100 | 1016.1 |
| 20260830084857 | 144 | 185 | 0.0 | 2.6 | 0.00 | 0.00 | 0.00 | 100 | 1016.2 |
| 20260830084357 | 144 | 167 | 0.0 | 5.2 | 0.00 | 0.00 | 0.00 | 100 | 1016.2 |
| 20260830084107 | 144 | 167 | 1.7 | 5.2 | 0.00 | 0.00 | 0.00 | 100 | 1016.1 |
| 20260830083313 | 144 | 101 | 0.0 | 2.6 | 0.00 | 0.00 | 0.00 | 100 | 1016.1 |
| 20260830082751 | 144 | 101 | 0.0 | 0.9 | 0.00 | 0.00 | 0.00 | 100 | 1016.1 |
| 20260830082246 | 144 | 101 | 0.0 | 2.6 | 0.00 | 0.00 | 0.00 | 100 | 1016.1 |
| 20260830081740 | 144 | 101 | 0.0 | 2.6 | 0.00 | 0.00 | 0.00 | 100 | 1016.1 |
| 20260830081240 | 144 | 135 | 0.0 | 0.0 | 0.00 | 0.00 | 0.00 | 100 | 1016.2 |
| 20260830080737 | 144 | 135 | 0.0 | 3.5 | 0.00 | 0.00 | 0.00 | 100 | 1016.2 |
| 20260830080235 | 144 | 135 | 0.0 | 3.5 | 0.00 | 0.00 | 0.00 | 100 | 1016.2 |
| 20260830075728 | 144 | 177 | 0.0 | 4.3 | 0.00 | 0.00 | 0.00 | 100 | 1016.3 |
| 20260830075229 | 144 | 177 | 0.0 | 4.3 | 0.00 | 0.00 | 0.00 | 100 | 1016.3 |
| 20260830074725 | 144 | 146 | 0.0 | 5.2 | 0.00 | 0.00 | 0.00 | 100 | 1016.3 |
| 20260830074217 | 144 | 164 | 0.9 | 5.2 | 0.00 | 0.00 | 0.00 | 100 | 1016.3 |
| 20260830073715 | 144 | 161 | 1.7 | 3.5 | 0.00 | 0.00 | 0.00 | 100 | 1016.3 |
| 20260830073210 | 144 | 201 | 0.0 | 0.0 | 0.00 | 0.00 | 0.00 | 100 | 1016.3 |
| 20260830072704 | 144 | 201 | 0.0 | 0.0 | 0.00 | 0.00 | 0.00 | 100 | 1016.5 |
| 20260830072427 | 144 | 201 | 0.0 | 0.0 | 0.00 | 0.00 | 0.00 | 100 | 1016.5 |
| 20260830071634 | 144 | 201 | 0.0 | 0.0 | 0.00 | 0.00 | 0.00 | 100 | 1016.5 |
| 20260830071130 | 144 | 201 | 0.0 | 0.0 | 0.00 | 0.00 | 0.00 | 100 | 1016.4 |
| 20260830070620 | 144 | 201 | 0.0 | 0.0 | 0.00 | 0.00 | 0.00 | 100 | 1016.4 |
| 20260830070112 | 144 | 201 | 0.0 | 0.0 | 0.00 | 0.00 | 0.00 | 100 | 1016.4 |
| 20260830065612 | 144 | 201 | 0.0 | 0.0 | 0.00 | 0.00 | 0.00 | 100 | 1016.4 |
| 20260830065100 | 145 | 201 | 0.0 | 0.0 | 0.00 | 0.00 | 0.00 | 100 | 1016.3 |
| 20260830064532 | 145 | 201 | 0.0 | 0.0 | 0.00 | 0.00 | 0.00 | 100 | 1016.3 |
| 20260830064010 | 145 | 201 | 0.0 | 2.6 | 0.00 | 0.00 | 0.00 | 100 | 1016.3 |
| 20260830063457 | 145 | 201 | 0.0 | 4.3 | 0.00 | 0.00 | 0.00 | 100 | 1016.3 |
| 20260830062950 | 145 | 215 | 0.0 | 4.3 | 0.00 | 0.00 | 0.00 | 100 | 1016.3 |
| 20260830062451 | 145 | 170 | 0.0 | 0.0 | 0.00 | 0.00 | 0.00 | 100 | 1016.2 |
| 20260830061935 | 145 | 170 | 0.0 | 4.3 | 0.00 | 0.00 | 0.00 | 100 | 1016.3 |
| 20260830061435 | 145 | 170 | 1.7 | 4.3 | 0.00 | 0.00 | 0.00 | 100 | 1016.3 |
| 20260830060929 | 145 | 123 | 0.0 | 0.0 | 0.00 | 0.00 | 0.00 | 100 | 1016.2 |
| 20260830060430 | 145 | 123 | 0.0 | 5.2 | 0.00 | 0.00 | 0.00 | 100 | 1016.2 |
| 20260830055929 | 145 | 123 | 0.0 | 5.2 | 0.00 | 0.00 | 0.00 | 100 | 1016.2 |
| 20260830055428 | 145 | 137 | 0.9 | 5.2 | 0.00 | 0.00 | 0.00 | 100 | 1016.1 |
| 20260830054928 | 145 | 137 | 0.0 | 5.2 | 0.00 | 0.00 | 0.00 | 100 | 1016.2 |
| 20260830054419 | 145 | 174 | 0.0 | 5.2 | 0.00 | 0.00 | 0.00 | 100 | 1016.1 |
| 20260830054127 | 145 | 174 | 0.0 | 5.2 | 0.00 | 0.00 | 0.00 | 100 | 1016.1 |
| 20260830053349 | 144 | 156 | 0.0 | 4.3 | 0.00 | 0.00 | 0.00 | 100 | 1016.1 |
| 20260830052847 | 145 | 132 | 0.0 | 4.3 | 0.00 | 0.00 | 0.00 | 100 | 1016.1 |
| 20260830052342 | 145 | 132 | 0.0 | 6.1 | 0.00 | 0.00 | 0.00 | 100 | 1016.1 |
| 20260830051829 | 145 | 127 | 0.9 | 6.1 | 0.00 | 0.00 | 0.00 | 100 | 1016.0 |
| 20260830051326 | 145 | 126 | 0.9 | 5.2 | 0.00 | 0.00 | 0.00 | 100 | 1016.0 |
| 20260830050815 | 145 | 154 | 0.0 | 5.2 | 0.00 | 0.00 | 0.00 | 100 | 1016.1 |
| 20260830050245 | 145 | 191 | 2.6 | 6.1 | 0.00 | 0.00 | 0.00 | 100 | 1015.9 |
| 20260830045745 | 145 | 234 | 1.7 | 9.6 | 0.00 | 0.00 | 0.00 | 100 | 1016.0 |
| 20260830045241 | 145 | 147 | 2.6 | 9.6 | 0.00 | 0.00 | 0.00 | 100 | 1016.0 |
| 20260830044740 | 145 | 104 | 0.9 | 9.6 | 0.00 | 0.00 | 0.00 | 100 | 1016.0 |
| 20260830044500 | 146 | 153 | 3.5 | 9.6 | 0.00 | 0.00 | 0.00 | 100 | 1016.0 |
| 20260830043729 | 145 | 201 | 2.6 | 6.1 | 0.00 | 0.00 | 0.00 | 100 | 1016.0 |
| 20260830043229 | 146 | 130 | 2.6 | 6.1 | 0.00 | 0.00 | 0.00 | 100 | 1016.0 |
| 20260830042728 | 146 | 147 | 0.0 | 7.0 | 0.00 | 0.00 | 0.00 | 100 | 1016.0 |
| 20260830042440 | 146 | 164 | 0.0 | 7.0 | 0.00 | 0.00 | 0.00 | 100 | 1016.0 |
| 20260830041709 | 146 | 130 | 1.7 | 6.1 | 0.00 | 0.00 | 0.00 | 100 | 1016.0 |
| 20260830041202 | 146 | 142 | 3.5 | 7.0 | 0.00 | 0.00 | 0.00 | 100 | 1016.0 |
| 20260830040700 | 146 | 115 | 2.6 | 7.0 | 0.00 | 0.00 | 0.00 | 100 | 1016.0 |
| 20260830040159 | 146 | 156 | 0.0 | 7.8 | 0.00 | 0.00 | 0.00 | 100 | 1016.0 |
| 20260830035928 | 146 | 171 | 4.3 | 7.8 | 0.00 | 0.00 | 0.00 | 100 | 1015.9 |
| 20260830035157 | 146 | 154 | 2.6 | 8.7 | 0.00 | 0.00 | 0.00 | 100 | 1015.8 |
| 20260830034928 | 145 | 146 | 4.3 | 8.7 | 0.00 | 0.00 | 0.00 | 100 | 1015.8 |
| 20260830034157 | 145 | 184 | 3.5 | 9.6 | 0.00 | 0.00 | 0.00 | 100 | 1015.8 |
| 20260830033657 | 145 | 154 | 1.7 | 9.6 | 0.00 | 0.00 | 0.00 | 100 | 1015.8 |
| 20260830033157 | 145 | 136 | 0.9 | 8.7 | 0.00 | 0.00 | 0.00 | 100 | 1015.8 |
| 20260830032658 | 145 | 140 | 0.9 | 7.8 | 0.00 | 0.00 | 0.00 | 100 | 1015.7 |
| 20260830032156 | 145 | 120 | 0.0 | 6.1 | 0.00 | 0.00 | 0.00 | 100 | 1015.7 |
| 20260830031642 | 145 | 125 | 1.7 | 7.8 | 0.00 | 0.00 | 0.00 | 100 | 1015.6 |
| 20260830031143 | 146 | 147 | 5.2 | 7.8 | 0.00 | 0.00 | 0.00 | 100 | 1015.6 |
| 20260830030913 | 145 | 137 | 1.7 | 7.0 | 0.00 | 0.00 | 0.00 | 100 | 1015.6 |
| 20260830030142 | 146 | 111 | 0.9 | 7.0 | 0.00 | 0.00 | 0.00 | 100 | 1015.4 |
| 20260830025913 | 146 | 111 | 1.7 | 7.0 | 0.00 | 0.00 | 0.00 | 100 | 1015.6 |
| 20260830025145 | 146 | 125 | 1.7 | 5.2 | 0.00 | 0.00 | 0.00 | 100 | 1015.3 |
| 20260830025141 | 146 | 147 | 1.7 | 5.2 | 0.00 | 0.00 | 0.00 | 100 | 1015.4 |
| 20260830024139 | 146 | 136 | 0.9 | 4.3 | 0.00 | 0.00 | 0.00 | 100 | 1015.2 |
| 20260830023636 | 146 | 163 | 0.0 | 6.1 | 0.00 | 0.00 | 0.00 | 100 | 1015.1 |
| 20260830023121 | 147 | 136 | 0.0 | 6.1 | 0.00 | 0.00 | 0.00 | 100 | 1015.0 |
| 20260830022602 | 146 | 112 | 0.0 | 2.6 | 0.00 | 0.00 | 0.00 | 100 | 1014.9 |
| 20260830022059 | 147 | 127 | 0.0 | 0.0 | 0.00 | 0.00 | 0.00 | 100 | 1014.7 |
| 20260830021812 | 146 | 127 | 0.0 | 0.0 | 0.00 | 0.00 | 0.00 | 100 | 1014.7 |
| 20260830021038 | 146 | 127 | 0.0 | 0.0 | 0.00 | 0.00 | 0.00 | 100 | 1014.6 |
| 20260830020531 | 146 | 127 | 0.0 | 0.0 | 0.00 | 0.00 | 0.00 | 100 | 1014.5 |